SCP
0 0 0 0 0 0 0 0 0 0 0 0 0 0 0 1 1 1 1 1 1 1 1 1 1 1 1 1 1 1 1 1 1 2 1 1 1 1 1 1 1 0 1
0 0 0 0 0 0 0 0 0 0 0 0 0 0 0 1 1 1 1 1 1 1 1 1 1 1 1 1 1 1 1 1 2 2 2 1 1 2 1 1 1 1 1
0 0 0 0 0 0 0 0 0 0 0 0 0 0 0 0 0 0 0 1 1 1 1 1 1 1 1 1 1 2 2 2 2 2 2 2 2 2 2 1 1 1 1
0 0 0 0 0 0 0 0 0 0 0 0 0 0 0 0 0 0 0 0 0 0 0 1 1 1 1 1 2 2 2 2 2 2 2 2 2 2 2 1 1 1 1
0 0 0 0 0 0 0 0 0 0 0 0 0 0 0 0 0 0 0 0 0 0 0 1 1 1 1 2 2 3 2 2 2 2 1 2 2 2 2 2 1 1 1
0 0 0 0 0 0 0 0 0 0 0 0 0 0 0 0 0 0 0 0 0 0 0 1 1 1 2 2 3 3 2 2 2 2 2 2 2 2 2 2 1 1 1
0 0 0 0 0 0 0 0 0 0 0 0 0 0 0 0 0 0 0 0 0 0 0 1 1 1 2 3 3 2 2 2 2 2 2 1 2 2 2 2 2 2 2
0 0 0 0 0 0 0 0 0 0 0 0 0 0 0 0 0 0 0 0 0 0 0 1 1 2 3 3 3 2 2 2 2 2 1 1 1 1 1 2 2 2 2
0 0 0 0 0 0 0 0 0 0 0 0 0 0 0 0 0 0 0 0 0 0 0 1 1 2 3 3 3 2 2 2 2 2 1 1 1 1 1 1 2 2 2
0 0 0 0 0 0 0 0 0 0 0 0 0 0 0 0 0 0 0 0 0 0 0 1 2 3 3 3 2 2 2 2 2 2 1 1 1 1 1 1 1 2 2
0 0 0 0 0 0 0 0 0 0 0 0 0 0 0 0 0 0 0 0 0 0 1 1 2 2 2 2 2 2 2 2 2 1 1 1 1 1 1 1 1 2 2
0 0 0 0 0 0 0 0 0 0 0 0 0 0 0 0 1 0 0 0 0 0 1 1 1 1 1 1 2 2 2 2 2 2 1 1 1 1 1 1 1 1 1
0 0 0 0 0 0 0 1 1 1 0 0 0 0 0 0 0 0 0 0 0 0 1 1 1 1 1 1 1 2 3 3 2 2 1 1 1 1 1 1 1 1 1
0 0 0 0 0 0 0 0 0 0 0 0 0 0 0 0 0 0 0 0 0 0 0 0 0 0 0 1 1 2 2 2 2 1 1 1 1 1 1 1 1 1 1
0 0 0 0 0 0 0 0 0 0 0 0 0 0 0 0 0 0 0 0 0 0 0 0 0 0 0 0 1 1 2 2 1 1 1 1 1 1 1 1 1 1 1
0 0 0 0 0 0 0 0 0 0 0 0 0 0 0 0 0 0 0 0 0 1 0 0 0 0 0 0 1 1 1 1 1 1 1 1 1 1 1 1 1 1 1
0 0 0 0 0 0 0 0 0 0 0 0 0 0 0 0 0 0 0 0 0 0 0 0 0 0 0 0 0 1 1 1 1 1 0 0 0 0 0 0 0 0 0
1 1 0 0 0 0 0 0 0 0 0 0 0 0 0 0 0 0 0 0 0 0 0 0 0 0 0 0 0 0 1 1 1 0 0 0 0 0 0 0 0 0 0
1 1 1 0 0 0 0 0 0 0 0 0 0 0 0 0 0 0 0 0 0 0 0 0 0 0 0 0 0 0 1 1 1 0 0 0 0 0 0 0 0 0 0
1 1 1 1 1 1 1 0 0 0 0 0 0 0 0 0 0 0 0 0 0 0 0 0 0 0 0 0 0 0 0 0 0 0 0 0 0 0 0 0 0 0 0
0 1 1 1 1 1 1 1 0 0 0 0 0 0 0 0 0 0 0 0 0 0 0 0 0 0 0 0 0 0 0 0 0 0 0 0 0 0 0 0 0 0 0
0 0 1 1 1 1 1 1 0 0 0 0 0 0 0 0 0 0 0 0 0 0 0 0 0 0 0 0 0 0 0 0 0 0 0 0 0 0 0 0 0 0 0
0 0 1 1 1 1 1 1 1 0 0 0 0 0 0 0 0 0 0 0 0 0 0 0 0 1 1 1 1 1 0 0 0 0 0 0 0 0 1 0 0 0 0
0 0 1 1 1 1 2 1 1 0 0 0 0 0 0 0 0 0 0 0 0 0 0 0 0 1 1 1 1 1 1 1 0 0 0 0 0 1 1 1 0 0 0
1 1 1 1 1 1 2 1 1 1 0 0 0 0 0 0 0 0 0 0 0 0 0 0 0 1 1 1 1 1 1 1 0 0 0 0 0 0 1 1 1 1 1
1 1 1 1 1 1 2 1 1 1 1 0 0 0 0 0 0 0 0 0 0 1 0 0 0 0 1 1 1 1 1 1 0 0 0 0 0 0 1 1 1 1 1
Wind_Speed
3 4 6 5 6 7 7 7 8 8 8 8 8 8 8 8 8 8 8 8 9 8 8 8 7 8 8 7 7 7 7 7 6 6 6 6 6 5 5 5 4 4 6
4 5 6 5 6 7 7 8 8 8 8 8 8 8 9 9 8 9 9 9 9 9 8 8 8 8 8 8 7 7 6 6 6 6 6 6 6 5 5 4 2 3 5
4 5 6 6 6 7 8 8 8 8 8 8 8 8 8 8 9 9 9 9 9 9 9 9 9 9 9 9 8 8 7 6 6 5 4 4 6 6 5 4 4 4 5
5 5 7 6 6 7 8 8 8 8 8 8 8 9 8 8 9 9 8 9 9 9 9 9 10 10 10 9 9 9 8 7 6 3 2 3 4 7 5 5 4 4 4
5 6 8 6 7 7 8 8 9 9 9 9 9 9 9 9 9 8 9 9 9 9 9 9 10 10 10 10 10 9 9 7 5 3 4 4 4 6 5 4 4 4 3
6 6 8 6 7 7 8 8 9 9 9 9 9 9 9 9 9 8 8 9 9 9 10 10 10 10 9 9 10 9 8 6 3 4 4 4 4 6 6 5 4 4 4
6 6 8 7 7 7 8 8 9 9 9 10 9 9 9 9 9 9 9 10 10 10 10 10 10 10 10 9 9 9 7 4 5 5 4 5 6 7 6 6 5 4 4
5 5 7 8 7 7 8 8 9 9 9 10 10 10 10 10 10 10 10 10 10 10 10 10 10 10 10 9 9 9 8 4 5 5 5 5 7 6 6 5 5 4 4
5 5 6 7 7 8 8 8 9 9 9 10 10 10 10 10 10 11 11 10 10 10 11 11 11 10 10 10 9 8 7 5 4 4 5 5 7 6 5 5 6 5 4
6 5 5 6 6 6 8 9 8 9 9 9 10 9 8 9 10 10 11 11 11 11 11 11 11 11 11 10 10 9 5 2 5 5 5 6 7 6 5 5 6 5 5
5 5 5 5 5 6 7 8 7 8 7 6 8 6 3 6 7 8 12 12 11 11 11 11 10 10 8 9 9 6 3 4 6 5 5 7 6 6 6 6 6 6 6
6 5 4 5 5 5 5 5 4 5 5 4 5 5 5 6 6 7 10 11 11 9 9 9 8 6 4 5 6 2 4 6 5 5 6 8 7 7 7 7 7 7 7
5 5 4 4 5 5 4 4 3 3 3 4 6 6 5 5 4 4 4 5 6 5 6 6 4 5 5 5 5 5 6 5 4 5 7 9 8 8 8 8 8 8 8
5 5 4 4 4 4 4 4 3 3 3 3 4 5 4 3 3 4 3 4 4 4 4 4 4 6 7 7 7 7 7 5 5 4 7 10 10 9 9 8 9 8 8
5 5 4 4 4 4 4 3 3 3 3 4 3 3 4 3 4 4 4 3 4 4 4 4 5 6 6 7 7 7 7 7 7 6 6 12 12 11 10 11 11 11 9
6 5 5 4 4 4 4 3 3 3 3 3 3 3 4 3 3 3 4 4 4 4 4 4 5 5 5 5 6 7 6 6 7 6 6 9 13 13 12 12 11 11 11
6 6 6 4 4 4 4 4 3 2 3 3 3 3 4 3 3 3 3 3 3 3 3 4 5 4 4 5 6 6 5 6 6 7 7 5 6 11 13 12 12 11 11
6 7 7 5 5 5 4 4 3 2 2 2 2 2 3 3 2 3 2 2 3 3 2 3 3 3 4 4 4 4 4 5 6 6 6 6 5 6 9 12 11 11 11
7 7 8 7 6 5 4 4 3 3 2 2 2 1 2 2 2 2 2 1 2 2 2 2 3 3 3 3 3 3 4 4 5 5 6 6 6 5 5 7 9 10 10
6 7 7 7 6 6 4 4 3 3 2 2 1 2 2 1 2 2 2 1 2 2 2 2 3 2 2 2 3 3 3 3 3 4 5 5 5 6 6 5 4 6 9
7 8 8 8 7 6 4 4 4 3 2 2 2 2 2 2 2 2 1 2 1 1 2 2 2 2 2 1 1 2 3 3 4 3 3 3 4 5 4 5 4 4 4
8 8 9 8 7 6 4 4 3 3 2 2 2 2 2 2 2 2 2 2 2 1 2 2 2 1 1 1 1 0 1 2 3 3 2 2 3 3 4 4 4 4 4
8 8 7 8 8 7 7 4 4 3 3 3 3 2 2 2 2 2 2 1 1 2 2 2 1 1 1 0 1 2 1 1 1 2 2 2 3 3 3 3 4 4 4
8 7 8 7 7 7 7 6 6 4 4 3 3 3 3 3 2 2 2 2 2 2 2 2 2 1 1 1 0 1 2 1 1 0 1 2 2 2 2 2 2 3 4
7 7 7 7 7 7 7 7 6 5 4 3 3 3 3 2 2 3 2 2 2 2 3 2 2 2 1 1 1 1 0 1 2 1 1 0 1 1 2 2 1 2 3
6 6 6 7 7 7 7 7 7 6 5 5 5 4 3 3 3 3 3 3 3 3 3 3 3 3 2 1 1 1 1 1 1 1 1 1 1 1 1 1 1 2 2
Wind_Direction
84 73 68 61 65 67 68 67 67 68 69 73 76 77 75 77 75 67 74 90 92 91 88 83 93 93 94 93 93 97 106 111 115 123 128 125 121 122 129 135 156 145 121
90 86 81 68 70 70 69 70 67 68 70 71 73 74 73 71 72 71 75 83 86 86 82 81 86 89 86 83 83 85 93 102 106 110 127 132 124 121 124 123 107 95 117
93 92 98 75 73 70 69 68 67 68 72 71 72 77 78 73 69 71 74 77 81 82 80 78 80 85 82 78 76 76 79 88 94 103 137 130 121 112 113 113 106 108 114
92 87 77 76 79 76 73 71 70 70 74 75 73 77 81 76 70 69 71 75 77 79 80 80 79 80 79 77 74 73 75 82 89 108 117 96 104 100 104 101 106 111 109
95 87 83 77 79 78 75 72 69 70 73 75 77 77 78 76 74 71 70 72 75 79 82 83 80 79 79 79 74 73 75 81 95 106 76 72 75 87 93 90 94 101 105
103 96 89 78 78 76 74 72 71 70 71 75 77 79 77 77 75 72 74 74 75 78 81 82 81 79 78 78 74 73 78 81 96 77 72 69 71 76 78 81 81 83 88
102 97 96 86 80 76 75 75 73 72 72 74 76 76 75 73 71 72 75 78 78 78 80 81 82 82 80 79 77 73 76 70 76 76 74 71 67 69 70 72 77 83 82
104 102 105 101 85 76 75 76 74 74 75 76 74 74 73 70 69 70 73 81 81 78 77 76 77 79 78 76 75 69 59 39 75 71 71 69 68 67 62 57 57 72 84
114 108 106 113 110 102 84 76 75 74 75 76 74 73 73 73 72 70 70 77 82 81 78 75 75 74 73 71 68 67 60 40 62 69 69 65 66 65 60 56 54 61 65
119 111 104 100 95 100 101 90 81 79 78 78 75 72 77 85 82 76 74 70 77 77 76 74 74 73 72 70 65 60 53 45 59 62 61 68 70 73 70 61 59 64 66
121 117 111 106 100 93 89 100 103 101 91 104 97 88 94 84 80 80 67 68 72 77 75 72 73 75 78 82 70 51 33 54 60 59 60 60 63 70 74 73 65 64 77
133 126 119 115 109 102 96 102 94 92 93 86 88 90 81 76 71 75 84 74 71 77 84 77 81 88 70 72 77 56 49 54 55 58 61 54 58 69 73 75 68 64 78
135 129 129 124 116 109 105 94 86 87 90 88 88 91 86 84 91 80 85 94 83 79 76 88 88 66 62 57 49 52 48 45 46 47 53 50 57 66 66 69 70 69 72
146 139 133 130 124 117 109 104 103 97 92 89 93 88 86 81 75 75 74 71 67 64 63 64 64 68 64 63 58 57 54 48 47 49 52 49 55 58 60 62 65 71 75
154 154 145 145 134 125 111 110 111 98 89 96 91 96 88 83 78 80 80 74 67 64 66 62 64 66 64 60 57 55 53 55 53 49 59 59 55 56 58 60 61 64 69
168 164 150 156 146 141 134 133 111 109 108 99 96 98 97 88 83 78 77 75 68 60 56 62 66 65 64 60 57 55 54 56 58 52 56 65 62 57 54 58 61 62 63
173 167 156 161 155 150 135 121 115 119 117 110 104 101 96 86 86 85 73 79 79 76 70 62 65 59 62 66 61 53 53 52 55 55 53 50 64 65 57 55 55 56 56
177 169 160 165 166 155 146 144 135 125 119 111 105 93 93 91 80 78 74 77 82 81 74 66 64 64 61 55 56 55 56 57 54 52 52 51 47 53 66 58 53 54 58
183 175 167 169 169 161 154 153 145 133 128 118 108 107 103 100 92 93 75 73 89 87 84 78 68 58 62 56 60 58 56 58 53 49 52 51 51 48 58 72 64 57 57
187 184 177 168 175 165 167 165 149 145 143 126 121 118 104 109 104 97 107 112 97 95 90 92 89 76 64 64 68 64 60 62 62 51 45 49 46 48 48 51 63 68 60
187 192 186 182 179 172 173 179 169 160 157 149 137 118 134 134 131 117 117 104 109 119 120 110 101 102 89 81 96 88 85 78 67 62 50 47 53 52 53 49 47 49 68
188 196 194 189 182 179 183 181 175 163 166 150 152 155 158 156 155 148 152 132 140 132 137 121 123 98 83 50 324 254 151 127 91 59 53 48 45 49 45 45 49 45 38
193 196 197 189 183 183 180 176 169 158 166 170 172 170 162 164 168 170 163 168 167 177 159 159 171 175 159 125 330 319 308 35 65 101 55 46 42 32 36 32 37 42 42
197 196 197 188 186 183 181 183 185 187 188 188 183 170 173 179 178 182 189 207 196 197 189 187 187 207 215 198 124 338 339 8 281 180 123 55 32 26 27 24 26 33 31
192 191 192 186 185 181 185 184 195 196 196 186 186 181 184 182 194 198 209 211 214 209 207 196 197 219 216 239 250 244 310 262 273 266 263 333 36 29 16 6 11 22 19
179 181 185 183 184 183 189 191 199 197 196 191 195 191 189 190 202 200 212 217 216 213 211 203 202 209 233 237 256 256 255 268 266 272 271 276 322 9 13 2 349 10 1